View Data : List Evapotranspiration (ETo ) Reports


 
Search Evapotranspiration Reports
Station Fields:
Location:
Date Range:
Start Date:   End Date:
Searched: Report date on 9/24/2018.
Showing 1 - 50 of 107 Records. <Back  Page   Next>
DateTimeStation NumberStation NameGaugeReadingRefill LevelEvap AmtView
9/24/2018  12:00 AM  MN-AA-5  East Bethel 3.1 NE 1.87  0.02   
9/24/2018  4:30 AM  IN-OW-9  Spencer 7.0 S 4.63  0.11   
9/24/2018  5:00 AM  IN-PT-12  Valparaiso 4.3 SW 2.89  0.09   
9/24/2018  5:00 AM  NY-CQ-22  Fredonia 0.8 WNW 5.82  0.04   
9/24/2018  5:00 AM  WA-SJ-28  Lopez Island 3.9 NNE 4.33  0.03   
9/24/2018  5:07 AM  MO-CP-7  Boonville 0.5 ESE 4.29  0.14   
9/24/2018  5:15 AM  NM-SF-70  Santa Fe 10.5 S 5.17  0.26   
9/24/2018  5:30 AM  AL-MD-25  Huntsville 4.4 ENE 4.94  0.04   
9/24/2018  5:30 AM  IN-TN-1  Atlanta 4.4 W 8.30  0.10   
9/24/2018  6:00 AM  CA-SJ-5  Lodi 1.0 NNW 9.80  0.15   
9/24/2018  6:00 AM  KS-MP-42  McPherson 2.9 E 5.13  0.19   
9/24/2018  6:00 AM  MD-MG-54  Germantown 4.6 NNE 3.14  0.01   
9/24/2018  6:00 AM  TN-MA-3  Jasper 1.7 N 2.82  0.02   
9/24/2018  6:30 AM  IL-WN-2  Roscoe 1.6 ESE 6.71  0.12   
9/24/2018  6:30 AM  NH-CH-21  Keene 2.0 SE 1.93  0.01   
9/24/2018  6:30 AM  OH-DR-1  Bradford 2.3 NW 3.77  0.10   
9/24/2018  6:45 AM  IN-PT-133  Valparaiso 2.2 WNW 1.10  0.11   
9/24/2018  6:50 AM  TX-KN-118  Boerne 1.6 E 1.75  0.09   
9/24/2018  6:55 AM  MN-DK-53  Lakeville 3.8 ENE 6.54  0.12   
9/24/2018  6:56 AM  PA-CD-6  Mechanicsburg 1.0 NNW 5.55  0.00   
9/24/2018  7:00 AM  AZ-PN-50  Saddlebrooke 1.5 SW 1.28  0.30   
9/24/2018  7:00 AM  CA-HM-5  Mckinleyville 7.3 ESE 6.67  0.08   
9/24/2018  7:00 AM  CA-SD-132  Descanso 3.7N 4.50  0.28   
9/24/2018  7:00 AM  CA-SD-12  Poway 3.2NE 6.26  0.11   
9/24/2018  7:00 AM  CA-TH-11  Red Bluff 5.1 NNW 5.85  0.25   
9/24/2018  7:00 AM  CO-BO-57  Nederland 5.8 E 9.18  0.18   
9/24/2018  7:00 AM  CO-EP-24  Black Forest 2.1 SSE 8.70  0.20   
9/24/2018  7:00 AM  CO-JF-63  Golden 4.8 NW 1.01  0.21   
9/24/2018  7:00 AM  CO-LR-854  Loveland 2.3 NW 0.99  0.27   
9/24/2018  7:00 AM  CO-LR-623  Fort Collins 6.1 SW 5.63  0.21   
9/24/2018  7:00 AM  CO-LG-6  Sterling 3.7 NNE 3.90  0.25   
9/24/2018  7:00 AM  CO-ME-79  Grand Junction 3.9 WSW 6.45  0.20   
9/24/2018  7:00 AM  FL-MR-66  The Villages 3.7 NNW 7.97  0.16   
9/24/2018  7:00 AM  GA-FY-28  Fayetteville 2.1 NNE 8.78  0.13   
9/24/2018  7:00 AM  IL-CP-1  Homer 2.0 N 7.00  0.11   
9/24/2018  7:00 AM  IL-KN-67  St. Charles 6.0 NW 3.70  0.11   
9/24/2018  7:00 AM  IL-WF-14  El Paso 5.2 NNW 7.49  0.07   
9/24/2018  7:00 AM  IN-AL-5  Huntertown 2.6 ESE 5.58  0.08   
9/24/2018  7:00 AM  IN-HR-5  Milltown 5.7 SSE 9.32  0.01   
9/24/2018  7:00 AM  IN-MR-13  Speedway 6.2 SSW 4.53  0.08   
9/24/2018  7:00 AM  IA-LN-7  Central City 6.7 W 5.14  0.14   
9/24/2018  7:00 AM  IA-TY-2  New Market 4.7 N 8.72  0.11   
9/24/2018  7:00 AM  KY-FR-1  Frankfort 3.3 NE 9.30  0.01   
9/24/2018  7:00 AM  KY-ME-8  Harrodsburg 10.8 NW 1.04 0.87 0.17   
9/24/2018  7:00 AM  ME-LN-1  Newcastle 2.1 SW 5.00  0.10   
9/24/2018  7:00 AM  MD-CR-19  Eldersburg 0.9 E 8.45  0.00   
9/24/2018  7:00 AM  MD-HR-23  Norrisville 0.6 WSW 6.22  0.00   
9/24/2018  7:00 AM  MD-PG-49  Fort Washington 1.6 WSW 0.21  0.02   
9/24/2018  7:00 AM  MA-BR-23  Attleboro 0.9 ENE 7.99  0.03   
9/24/2018  7:00 AM  MI-BN-3  Buchanan 1.4 ESE 6.08  0.09